[[[{"header":{"parameterUnit":"kt","parameterCategory":2,"dx":1,"dy":1,"la1":30.253999710083008,"la2":30.299108505249023,"lo1":-89.0895004272461,"lo2":-89.04439544677734,"nx":28,"ny":28,"refTime":"2022-10-15T21:00:00:Z","depth":0,"parameterNumber":1,"parameterNumberName":"U-component_of_WINDS"},"data":[-7.0651,-7.0737,-7.0699,-7.078,-7.0759,-7.0808,-7.0813,-7.0817,-7.0809,-7.0865,-7.0891,-7.0861,-7.0839,-7.0862,-7.0889,-7.0875,-7.0889,-7.095,-7.0923,-7.0685,-7.065,-7.0616,-7.0591,-7.0954,-7.0954,-7.1174,-7.1176,-7.1178,-7.049,-7.047,-7.05,-7.0503,-7.0529,-7.0449,-7.0445,-7.0472,-7.0519,-7.051,-7.0531,-7.0577,-7.0609,-7.0564,-7.0588,-7.0629,-7.0592,-7.0639,-7.0634,-7.0632,-7.0377,-7.0352,-7.0669,-7.0669,-7.0669,-7.0669,-7.0669,-7.0669,-7.0184,-7.0236,-7.0213,-7.0245,-7.0235,-7.0238,-7.0281,-7.0241,-7.027,-7.0288,-7.0234,-7.0285,-7.0269,-7.0275,-7.0268,-7.0308,-7.0249,-7.0287,-7.0296,-7.0307,-7.0326,-7.0017,-7.031,-7.0309,-7.0308,-7.0307,-7.0307,0,-6.9947,-6.991,-6.9933,-6.9948,-6.9968,-6.9974,-6.9973,-6.9999,-6.9904,-6.9932,-6.997,-6.9985,-7.0015,-7.0047,-7.0058,-7.0041,-6.9957,-6.9944,-6.997,-6.9997,-7.0021,-7.001,-6.9597,-6.9935,-6.9931,-6.9929,-6.9927,-6.9926,-6.9635,-6.97,-6.9653,-6.9676,-6.9664,-6.9702,-6.9716,-6.9626,-6.9646,-6.9631,-6.9682,-6.9712,-6.973,-6.9798,-6.9748,-6.977,-6.9729,-6.9864,-6.9732,-6.9757,-6.9732,-6.9729,-6.9736,-6.989,-6.9895,-6.9898,-6.9901,0,-6.9465,-6.9394,-6.9479,-6.9425,-6.9414,-6.9487,-6.9441,-6.9489,-6.9442,-6.9502,-6.9511,-6.9438,-6.9476,-6.9403,-6.9431,-6.9392,-6.9517,-6.9476,-6.9524,-6.9511,-6.9625,-6.9615,-7.0001,-7.0048,-6.9671,-6.9675,-6.9678,0,-6.9171,-6.9258,-6.9147,-6.92,-6.9295,-6.9199,-6.9296,-6.9264,-6.9243,-6.9289,-6.9181,-6.9227,-6.9125,-6.9162,-6.9104,-6.9192,-6.9196,-6.9172,-6.9155,-6.9181,-6.9184,-6.9189,-6.9171,-6.9114,-6.9112,-6.911,-6.9108,0,-6.8909,-6.895,-6.9035,-6.9032,-6.898,-6.9024,-6.9005,-6.8978,-6.8992,-6.8998,-6.9007,-6.9022,-6.903,-6.9045,-6.897,-6.8883,-6.9075,-6.894,-6.905,-6.9052,-6.9094,-6.9092,-6.9454,-6.9106,-6.9106,-6.9105,-6.9104,0,-6.8658,-6.8663,-6.8797,-6.8751,-6.8765,-6.8821,-6.8827,-6.8857,-6.8838,-6.8803,-6.8807,-6.8724,-6.8792,-6.8665,-6.8759,-6.8668,-6.8684,-6.8665,-6.8672,-6.8672,-6.853,-6.8744,-6.9097,-6.9131,-6.8676,-6.8673,-6.8669,0,-6.838,-6.8493,-6.8408,-6.8537,-6.8578,-6.845,-6.8511,-6.8495,-6.8453,-6.8484,-6.8437,-6.8473,-6.8361,-6.8361,-6.8418,-6.8372,-6.8491,-6.8354,-6.8403,-6.8406,-6.8412,-6.8735,-6.8805,-6.9028,-6.8623,-6.8628,-6.8631,0,-6.8153,-6.8084,-6.8112,-6.8104,-6.8063,-6.8096,-6.8166,-6.8177,-6.8202,-6.8194,-6.8251,-6.8298,-6.8216,-6.8216,-6.8148,-6.8212,-6.8408,-6.8114,-6.8112,-6.8171,-6.8592,-6.8659,-6.8696,-6.8349,-6.8355,-6.8359,-6.8594,0,-6.7793,-6.7837,-6.791,-6.7892,-6.7905,-6.7979,-6.7893,-6.7919,-6.7851,-6.7802,-6.7884,-6.7847,-6.7859,-6.788,-6.7814,-6.798,-6.794,-6.7851,-6.7719,-6.7932,-6.8007,-6.8038,-6.7614,-6.761,-6.7606,-6.7603,0,0,-6.7544,-6.7603,-6.7504,-6.7564,-6.7568,-6.743,-6.7517,-6.7505,-6.7484,-6.7491,-6.7417,-6.7477,-6.7449,-6.7557,-6.7617,-6.7621,-6.7644,-6.757,-6.7831,-6.7857,-6.7881,-6.7963,-6.7996,-6.7597,-6.7595,-6.7594,-6.7593,0,-6.7392,-6.7364,-6.7449,-6.7431,-6.7401,-6.7343,-6.7364,-6.7309,-6.7281,-6.7357,-6.7241,-6.728,-6.7327,-6.7315,-6.7315,-6.7556,-6.7466,-6.7566,-6.7725,-6.7797,-6.7828,-6.7855,-6.7942,-6.7975,-6.7584,-6.7584,-6.7585,0,-6.7153,-6.7111,-6.7141,-6.714,-6.7118,-6.7162,-6.7002,-6.7054,-6.7086,-6.693,-6.7007,-6.6975,-6.6949,-6.706,-6.7107,-6.704,-6.7311,-6.7208,-6.7229,-6.7232,-6.7297,-6.7334,-6.7367,-6.6933,-6.6931,-6.6929,0,0,-6.7034,-6.7072,-6.6995,-6.71,-6.7095,-6.7008,-6.7021,-6.6952,-6.693,-6.6922,-6.6876,-6.686,-6.6887,-6.6907,-6.6927,-6.7061,-6.7048,-6.7132,-6.7162,-6.7188,-6.7205,-6.7277,-6.7313,-6.6922,-6.6922,-6.6921,0,0,-6.6977,-6.689,-6.6823,-6.6933,-6.6916,-6.6847,-6.6915,-6.6832,-6.684,-6.6821,-6.6708,-6.6698,-6.68,-6.6772,-6.6686,-6.6878,-6.675,-6.6768,-6.6892,-6.6929,-6.6959,-6.6963,-6.6516,0,0,0,0,0,-6.6774,-6.6901,-6.6841,-6.6846,-6.6841,-6.688,-6.6879,-6.6787,-6.6698,-6.6756,-6.6705,-6.6606,-6.6703,-6.6624,-6.6632,-6.6728,-6.6828,-6.6845,-6.6861,-6.7051,-6.7091,-6.7125,0,0,0,0,0,0,-6.6775,-6.6781,-6.6837,-6.6775,-6.6773,-6.6875,-6.6704,-6.6683,-6.669,-6.667,-6.6619,-6.6604,-6.6527,-6.6614,-6.6622,-6.6716,-6.6513,-6.6835,-6.6849,-6.6862,-6.7065,-6.7098,-6.7126,0,0,0,0,0,-6.6775,-6.678,-6.6795,-6.6772,-6.6771,-6.6679,-6.6699,-6.6679,-6.6683,-6.6603,-6.6585,-6.6613,-6.6533,-6.6533,-6.6618,-6.6714,-6.6506,-6.651,-6.6844,-6.6855,-6.6865,-6.7081,0,0,0,0,0,0,-6.6775,-6.6763,-6.6793,-6.6789,-6.6715,-6.6671,-6.6661,-6.6677,-6.6613,-6.6597,-6.659,-6.6575,-6.6538,-6.6537,-6.6539,-6.6719,-6.6501,-6.6505,-6.6507,-6.6853,-6.6861,-6.6869,0,0,0,0,0,0,-6.676,-6.6761,-6.6791,-6.6724,-6.6712,-6.6665,-6.6656,-6.6713,-6.6614,-6.6604,-6.6589,-6.6585,-6.6536,-6.6541,-6.6541,-6.6635,-6.6497,-6.6501,-6.6503,-6.6504,-6.686,-6.6866,0,0,0,0,0,0,-6.6759,-6.676,-6.6725,-6.6716,-6.6704,-6.6654,-6.6714,-6.6715,-6.6556,-6.6609,-6.654,-6.6532,-6.6543,-6.6541,-6.6544,-6.6639,-6.6636,-6.6497,-6.65,-6.6501,-6.6502,0,0,0,0,0,0,0,-6.6758,-6.6773,-6.6816,-6.6708,-6.6698,-6.6753,-6.6752,-6.6751,-6.6555,-6.6548,-6.6541,-6.6535,-6.6478,-6.6482,-6.6485,-6.6642,0,0,-6.6497,-6.6499,0,0,0,0,0,0,0,0,-6.6771,-6.6772,-6.6816,-6.6815,-6.6814,-6.6753,-6.6752,-6.6752,-6.6554,-6.6548,-6.6543,-6.6538,-6.6479,-6.6482,-6.6485,0,0,0,0,0,0,0,0,0,0,0,0,0,0,0,-6.6816,-6.6815,0,-6.6753,-6.6752,-6.6752,-6.6553,-6.6548,-6.6544,-6.654,-6.648,-6.6482,-6.6485,0,0,0,0,0,0,0,0,0,0,0,0,0,0,0,0,0,0,0,0,0,0,0,0,0,0,0,0,0,0,0,0,0,0,0,0,0,0,0,0,0,0,0,0,0,0,0,0,0,0,0,0,0,0,0,0,0,0,0,0,0,0,0,0,0,0,0,0,0]}],[{"header":{"parameterUnit":"kt","parameterCategory":2,"dx":1,"dy":1,"la1":30.253999710083008,"la2":30.299108505249023,"lo1":-89.0895004272461,"lo2":-89.04439544677734,"nx":28,"ny":28,"refTime":"2022-10-15T21:00:00:Z","depth":0,"parameterNumber":2,"parameterNumberName":"V-component_of_WINDS"},"data":[1.8552,1.8488,1.8522,1.8463,1.8483,1.8447,1.8445,1.8445,1.8453,1.8412,1.8394,1.8419,1.8437,1.8421,1.8401,1.8412,1.8399,1.8354,1.8373,1.8551,1.8578,1.8603,1.862,1.8352,1.8351,1.8182,1.8181,1.8179,1.8682,1.8702,1.8682,1.8683,1.8665,1.873,1.8736,1.8715,1.868,1.8689,1.8674,1.8639,1.8615,1.8649,1.863,1.8598,1.8624,1.859,1.859,1.8591,1.8785,1.8803,1.8569,1.8569,1.8569,1.8569,1.8569,1.8569,1.8929,1.8889,1.891,1.8887,1.8897,1.8898,1.8864,1.8897,1.8874,1.8861,1.8903,1.8863,1.8876,1.8867,1.8872,1.884,1.8883,1.8853,1.8845,1.8835,1.8821,1.9057,1.8838,1.8839,1.884,1.884,1.8841,0,1.9118,1.9149,1.9131,1.9123,1.9108,1.9104,1.9105,1.9085,1.9158,1.9135,1.9106,1.9093,1.9068,1.9041,1.903,1.904,1.9099,1.9109,1.9088,1.9065,1.9047,1.9053,1.9363,1.9114,1.9116,1.9118,1.9119,1.912,1.9366,1.9316,1.9353,1.9336,1.9345,1.9315,1.9304,1.9372,1.9356,1.9366,1.9325,1.9301,1.9284,1.9228,1.9261,1.924,1.9267,1.9169,1.9264,1.9246,1.9262,1.9262,1.9257,1.9146,1.9143,1.914,1.9138,0,1.9501,1.9556,1.9489,1.953,1.9539,1.9482,1.9515,1.9477,1.9512,1.9463,1.9455,1.9507,1.9474,1.9524,1.9496,1.9522,1.9424,1.9454,1.9421,1.9428,1.9342,1.9348,1.9061,1.9026,1.9309,1.9306,1.9304,0,1.9732,1.9663,1.9748,1.9705,1.9631,1.9702,1.9625,1.9647,1.9661,1.9623,1.9701,1.9663,1.9733,1.9702,1.974,1.967,1.9665,1.9679,1.9689,1.9669,1.9667,1.9656,1.9667,1.9718,1.972,1.9721,1.9722,0,1.9935,1.99,1.9833,1.9833,1.9868,1.9834,1.9846,1.9862,1.9848,1.9839,1.9831,1.9814,1.9803,1.9788,1.9837,1.99,1.9753,1.9849,1.9767,1.9765,1.9727,1.9728,1.9466,1.9724,1.9724,1.9725,1.9725,0,2.0127,2.0121,2.0016,2.0047,2.0034,1.9989,1.9979,1.9952,1.9961,1.9984,1.9977,2.0033,1.9977,2.0069,1.9992,2.006,2.0044,2.0054,2.0049,2.0042,2.0142,1.9982,1.9732,1.9706,2.0043,2.0045,2.0048,0,2.0344,2.0253,2.0313,2.021,2.0175,2.0266,2.0217,2.0223,2.025,2.0221,2.025,2.0215,2.0294,2.0289,2.0246,2.0271,2.0184,2.0285,2.0236,2.0233,2.0228,2.0,1.9947,1.9783,2.0082,2.0079,2.0076,0,2.0517,2.0563,2.054,2.0543,2.0564,2.0534,2.0478,2.0461,2.0439,2.0437,2.0389,2.0343,2.04,2.0391,2.0434,2.0385,2.0245,2.0452,2.0453,2.041,2.0105,2.0056,2.0028,2.0284,2.028,2.0277,2.0104,0,2.0791,2.0752,2.0695,2.0697,2.0683,2.0622,2.0677,2.0654,2.0699,2.0727,2.0658,2.0673,2.0651,2.0634,2.0675,2.0549,2.0576,2.0637,2.0724,2.0576,2.052,2.0497,2.0804,2.0807,2.081,2.0812,0,0,2.0982,2.0928,2.0995,2.0944,2.0935,2.1029,2.0958,2.096,2.0959,2.095,2.1002,2.0936,2.0945,2.0854,2.0812,2.0804,2.0785,2.0834,2.0647,2.0629,2.0612,2.0551,2.0527,2.0816,2.0817,2.0818,2.0819,0,2.1093,2.1107,2.1038,2.1044,2.1056,2.109,2.1073,2.1099,2.1113,2.1048,2.1121,2.1086,2.1031,2.103,2.1022,2.0849,2.0903,2.0838,2.0726,2.067,2.0649,2.0629,2.0565,2.0541,2.0825,2.0824,2.0824,0,2.1271,2.1293,2.1266,2.1253,2.126,2.122,2.1329,2.1282,2.1252,2.1351,2.1282,2.1297,2.1299,2.1208,2.1169,2.1213,2.1007,2.1081,2.1067,2.1062,2.101,2.0983,2.096,2.1267,2.1269,2.127,0,0,2.1358,2.1323,2.1365,2.128,2.128,2.1329,2.1313,2.1355,2.1359,2.1359,2.1378,2.1376,2.1345,2.1322,2.1296,2.1188,2.1192,2.1134,2.1113,2.1096,2.1081,2.1024,2.0998,2.1275,2.1275,2.1275,0,0,2.1398,2.1445,2.149,2.1399,2.1402,2.1435,2.1379,2.1434,2.1415,2.1428,2.1492,2.1494,2.141,2.1419,2.1482,2.1327,2.1414,2.14,2.1323,2.1297,2.1277,2.1274,2.159,0,0,0,0,0,2.1539,2.1441,2.1481,2.1474,2.1455,2.1413,2.1411,2.1464,2.1526,2.1481,2.1506,2.1566,2.1467,2.1524,2.1513,2.1441,2.134,2.1328,2.1318,2.1193,2.1166,2.1143,0,0,0,0,0,0,2.1537,2.1528,2.1484,2.1512,2.1508,2.1417,2.1533,2.1545,2.1532,2.1545,2.156,2.1567,2.1609,2.1532,2.1522,2.1453,2.1594,2.1335,2.1326,2.1317,2.1184,2.1161,2.1142,0,0,0,0,0,2.1535,2.1528,2.1484,2.1514,2.151,2.1558,2.1537,2.1548,2.1539,2.1576,2.1585,2.158,2.1605,2.16,2.1527,2.1456,2.1601,2.1597,2.1329,2.1321,2.1314,2.1173,0,0,0,0,0,0,2.1534,2.1536,2.1485,2.1485,2.1555,2.1564,2.1568,2.155,2.1571,2.1579,2.16,2.1609,2.1602,2.1599,2.1594,2.1454,2.1607,2.1603,2.16,2.1323,2.1317,2.1312,0,0,0,0,0,0,2.154,2.1536,2.1485,2.1534,2.1541,2.157,2.1573,2.1517,2.157,2.1594,2.1603,2.1604,2.1607,2.1597,2.1594,2.1504,2.1611,2.1607,2.1605,2.1603,2.1318,2.1314,0,0,0,0,0,0,2.154,2.1536,2.1534,2.154,2.1546,2.156,2.1521,2.1497,2.1616,2.1591,2.1628,2.1633,2.1602,2.1601,2.1593,2.1504,2.1504,2.1611,2.1608,2.1607,2.1605,0,0,0,0,0,0,0,2.1539,2.155,2.148,2.1544,2.155,2.1494,2.1494,2.1494,2.1617,2.1622,2.1627,2.1631,2.1633,2.1629,2.1624,2.1504,0,0,2.1611,2.161,0,0,0,0,0,0,0,0,2.1553,2.1551,2.148,2.148,2.148,2.1494,2.1494,2.1494,2.1618,2.1622,2.1626,2.1629,2.1632,2.1628,2.1625,0,0,0,0,0,0,0,0,0,0,0,0,0,0,0,2.148,2.148,0,2.1494,2.1494,2.1494,2.1619,2.1622,2.1625,2.1628,2.1631,2.1628,2.1625,0,0,0,0,0,0,0,0,0,0,0,0,0,0,0,0,0,0,0,0,0,0,0,0,0,0,0,0,0,0,0,0,0,0,0,0,0,0,0,0,0,0,0,0,0,0,0,0,0,0,0,0,0,0,0,0,0,0,0,0,0,0,0,0,0,0,0,0,0]}]]]